Waarnemingen

Advertentie
Mijn weer
Yeovilton, Groot Brittannië (3853): temperatuur & dauwpunt: 12.02.2019 01:00:00 - 18.02.2019 01:00:00 (GMT)Yeovilton, Groot Brittannië (3853): temperatuur -20cm & temperatuur -100cm: 12.02.2019 01:00:00 - 18.02.2019 01:00:00 (GMT)Yeovilton, Groot Brittannië (3853): windsnelheid & windstoten: 12.02.2019 01:00:00 - 18.02.2019 01:00:00 (GMT)Yeovilton, Groot Brittannië (3853): windrichting: 12.02.2019 01:00:00 - 18.02.2019 01:00:00 (GMT)Yeovilton, Groot Brittannië (3853): luchtdruk: 12.02.2019 01:00:00 - 18.02.2019 01:00:00 (GMT)Yeovilton, Groot Brittannië (3853): zicht: 12.02.2019 01:00:00 - 18.02.2019 01:00:00 (GMT)Yeovilton, Groot Brittannië (3853): Zonneschijnduur: 12.02.2019 01:00:00 - 18.02.2019 01:00:00 (GMT)Yeovilton, Groot Brittannië (3853): neerslag: 12.02.2019 01:00:00 - 18.02.2019 01:00:00 (GMT)
Datum & Tijd tt [°C] td [°C] tt -20cm [°C] tt -100cm [°C] ff [km/u] ff [kn] fx [km/u] fx [kn] dd ppp [hPa] vv [km] sd [min] rr [mm]
18.02.2019 01:00:00 - - - - - - - - - - - - -
18.02.2019 00:00:00 9,3 7,4 - - 18 10 - - Z 1015,2 12 - 0,0
17.02.2019 23:00:00 9,7 7,9 - - 16 9 - - ZZW 1015,3 10 0 0,0
17.02.2019 22:00:00 9,3 7,8 - - 15 8 - - ZZW 1015,0 10 0 0,0
17.02.2019 21:00:00 9,7 7,6 - - 16 9 - - ZZW 1014,9 13 0 0,0
17.02.2019 20:00:00 9,7 7,8 - - 21 11 - - Z 1014,8 10 0 0,0
17.02.2019 19:00:00 9,8 7,9 - - 18 10 - - Z 1014,5 11 0 0,0
17.02.2019 18:00:00 10,1 8,0 - - 22 12 - - ZZW 1014,1 10 0 0,0
17.02.2019 17:00:00 10,8 8,6 - - 22 12 - - ZZW 1013,7 12 0 0,0
17.02.2019 16:00:00 11,4 8,8 - - 24 13 - - ZZW 1013,6 10 6 0,0
17.02.2019 15:00:00 11,7 8,8 - - 26 14 - - ZZW 1013,5 14 6 0,0
17.02.2019 14:00:00 12,1 9,3 - - 28 15 - - ZZW 1013,4 10 6 0,0
17.02.2019 13:00:00 12,0 9,6 - - 26 14 - - ZZW 1013,5 14 0 0,0
17.02.2019 12:00:00 10,8 9,0 - - 22 12 - - Z 1013,6 10 0 0,0
17.02.2019 11:00:00 11,1 8,5 - - 26 14 - - Z 1013,5 10 18 -
17.02.2019 10:00:00 10,9 8,0 - - 31 17 46 25 Z 1012,9 10 54 0,0
17.02.2019 09:00:00 10,1 6,9 7,9 7,0 22 12 - - Z 1012,8 10 36 0,0
17.02.2019 08:00:00 8,9 6,4 - - 21 11 - - Z 1012,4 14 0 0,0
17.02.2019 07:00:00 6,0 4,5 - - 9 5 - - O 1013,0 12 0 0,0
17.02.2019 06:00:00 5,3 3,7 - - 15 8 - - ONO 1013,5 9 0 0,0
17.02.2019 05:00:00 7,4 5,0 - - 9 5 - - O 1014,0 11 0 0,0
17.02.2019 04:00:00 8,0 5,9 - - 11 6 - - OZO 1014,6 11 0 0,0
17.02.2019 03:00:00 8,6 6,2 - - 13 7 - - ZO 1015,4 10 0 0,0
17.02.2019 02:00:00 9,1 6,8 - - 21 11 - - ZO 1016,1 11 0 0,0
17.02.2019 01:00:00 9,1 7,0 - - 21 11 - - ZO 1017,3 12 0 0,0
17.02.2019 00:00:00 9,5 7,8 - - 16 9 - - ZO 1018,2 14 - 0,0
16.02.2019 23:00:00 8,9 7,5 - - 8 4 - - ZZO 1018,9 10 0 0,0
16.02.2019 22:00:00 9,8 8,5 - - 18 10 - - ZZO 1019,7 13 0 0,0
16.02.2019 21:00:00 9,8 8,8 - - 21 11 - - Z 1020,4 10 0 0,0
16.02.2019 20:00:00 10,2 9,1 - - 18 10 - - Z 1020,6 12 0 0,0
16.02.2019 19:00:00 10,6 9,4 - - 15 8 - - Z 1020,9 10 0 0,0
16.02.2019 18:00:00 10,8 9,6 - - 13 7 - - Z 1020,8 13 0 0,0
16.02.2019 17:00:00 11,1 9,9 - - 15 8 - - ZZO 1020,5 14 0 0,0
16.02.2019 16:00:00 11,4 10,2 - - 16 9 - - Z 1020,9 18 0 0,0
16.02.2019 15:00:00 11,6 10,3 - - 15 8 - - Z 1021,4 15 0 0,0
16.02.2019 14:00:00 11,6 10,6 - - 13 7 - - Z 1022,0 12 0 0,0
16.02.2019 13:00:00 11,8 10,6 - - 16 9 - - ZZW 1022,5 15 0 0,0
16.02.2019 12:00:00 11,7 10,5 - - 21 11 - - ZZW 1022,8 20 0 0,0
16.02.2019 11:00:00 11,6 10,4 - - 15 8 - - Z 1022,9 14 0 0,0
16.02.2019 10:00:00 11,0 10,2 - - 15 8 - - ZZW 1022,9 12 0 0,0
16.02.2019 09:00:00 10,5 9,9 7,2 7,0 15 8 - - Z 1022,8 7 0 0,0
16.02.2019 08:00:00 10,3 9,9 - - 18 10 - - Z 1022,4 4,9 0 0,0
16.02.2019 07:00:00 10,3 9,9 - - 15 8 - - Z 1022,1 6 0 0,0
16.02.2019 06:00:00 10,5 9,8 - - 15 8 - - Z 1021,9 8 0 0,0
16.02.2019 05:00:00 10,1 9,7 - - 15 8 - - Z 1022,1 5 0 0,0
16.02.2019 04:00:00 10,0 9,3 - - 15 8 - - Z 1022,0 5 0 0,0
16.02.2019 03:00:00 9,7 9,1 - - 13 7 - - Z 1022,3 6 0 0,0
16.02.2019 02:00:00 7,9 7,5 - - 11 6 - - Z 1022,3 5 0 0,0
16.02.2019 01:00:00 5,2 4,4 - - 13 7 - - ZO 1022,8 4,5 0 0,0
16.02.2019 00:00:00 6,0 5,4 - - 9 5 - - ZO 1023,4 5 - 0,2
15.02.2019 23:00:00 4,8 4,1 - - 4 2 - - NW 1023,6 3,8 0 0,0
15.02.2019 22:00:00 5,5 4,5 - - 13 7 - - ZO 1023,2 6 0 0,0
15.02.2019 21:00:00 5,1 4,1 - - 11 6 - - ZZO 1023,8 5 0 0,0
15.02.2019 20:00:00 6,0 4,7 - - 8 4 - - O 1024,1 10 0 0,0
15.02.2019 19:00:00 7,1 5,4 - - 9 5 - - OZO 1024,0 11 0 0,0
15.02.2019 18:00:00 7,6 4,8 - - 5 3 - - OZO 1024,1 16 6 0,0
15.02.2019 17:00:00 10,5 6,5 - - 15 8 - - Z 1023,8 23 60 0,0
15.02.2019 16:00:00 12,7 7,6 - - 18 10 - - ZZO 1023,6 10 60 0,0
15.02.2019 15:00:00 13,6 7,6 - - 16 9 - - ZZO 1024,2 10 60 0,0
15.02.2019 14:00:00 13,5 7,2 - - 21 11 - - Z 1024,8 10 60 0,0
15.02.2019 13:00:00 13,8 7,0 - - 16 9 - - Z 1025,2 10 60 0,0
15.02.2019 12:00:00 12,7 8,1 - - 13 7 - - ZO 1025,9 8 60 0,0
15.02.2019 11:00:00 10,8 7,3 - - 15 8 - - ZZO 1026,3 7 60 0,0
15.02.2019 10:00:00 8,7 6,3 - - 9 5 - - ZO 1026,8 7 60 0,0
15.02.2019 09:00:00 5,9 4,6 6,9 7,0 8 4 - - OZO 1027,0 5 54 0,0
15.02.2019 08:00:00 4,2 3,3 - - 5 3 - - OZO 1027,2 5 0 0,0
15.02.2019 07:00:00 4,1 2,9 - - 5 3 - - O 1027,1 4,5 0 0,0
15.02.2019 06:00:00 4,9 3,7 - - 8 4 - - O 1026,9 5 0 0,0
15.02.2019 05:00:00 3,7 2,7 - - 8 4 - - O 1027,0 5 0 0,0
15.02.2019 04:00:00 3,1 2,7 - - 5 3 - - ONO 1027,4 4,6 0 0,0
15.02.2019 03:00:00 2,7 2,2 - - 9 5 - - OZO 1027,6 2,5 0 0,0
15.02.2019 02:00:00 3,4 2,6 - - 5 3 - - O 1027,9 3,1 0 0,0
15.02.2019 01:00:00 4,8 3,9 - - 15 8 - - ZO 1028,1 4,8 0 0,0
15.02.2019 00:00:00 4,4 3,5 - - 18 10 - - ZO 1028,2 3,8 - 0,0
14.02.2019 23:00:00 4,2 3,3 - - 15 8 - - ZO 1028,6 5 0 0,0
14.02.2019 22:00:00 4,0 3,3 - - 11 6 - - ZO 1028,8 4,7 0 0,0
14.02.2019 21:00:00 4,4 3,5 - - 8 4 - - ZO 1029,0 5 0 0,0
14.02.2019 20:00:00 3,8 2,0 - - 4 2 - - NO 1029,2 9 0 0,0
14.02.2019 19:00:00 4,7 2,1 - - 8 4 - - O 1029,1 10 0 0,0
14.02.2019 18:00:00 6,8 2,9 - - 9 5 - - O 1029,2 10 12 0,0
14.02.2019 17:00:00 9,5 4,9 - - 15 8 - - ZO 1029,2 10 60 0,0
14.02.2019 16:00:00 11,8 3,3 - - 13 7 - - ZZO 1029,3 10 60 0,0
14.02.2019 15:00:00 12,1 3,7 - - 21 11 - - ZO 1029,6 20 60 0,0
14.02.2019 14:00:00 11,8 5,3 - - 15 8 - - ZO 1030,2 10 60 0,0
14.02.2019 13:00:00 11,2 5,5 - - 15 8 - - ZO 1030,9 10 60 0,0
14.02.2019 12:00:00 10,3 5,9 - - 18 10 - - ZZO 1031,6 10 60 0,0
14.02.2019 11:00:00 9,3 7,3 - - 13 7 - - ZO 1031,8 7 60 0,0
14.02.2019 10:00:00 6,3 5,9 - - 5 3 - - ZO 1031,8 4,0 42 0,2
14.02.2019 09:00:00 2,4 2,4 7,2 7,0 5 3 - - O 1032,2 0,4 0 0,0
14.02.2019 08:00:00 1,6 1,5 - - 8 4 - - OZO 1032,0 0,2 0 0,0
14.02.2019 07:00:00 1,4 1,2 - - 11 6 - - O 1031,5 0,9 0 0,0
14.02.2019 06:00:00 0,4 -0,2 - - 5 3 - - ONO 1031,5 5 0 0,0
14.02.2019 05:00:00 2,6 2,4 - - 4 2 - - ZO 1031,3 5 0 0,0
14.02.2019 04:00:00 2,1 0,9 - - 4 2 - - N 1031,6 5 0 0,0
14.02.2019 03:00:00 5,0 4,5 - - 11 6 - - OZO 1031,8 6 0 0,0
14.02.2019 02:00:00 4,8 4,4 - - 5 3 - - O 1032,0 5 0 0,0
14.02.2019 01:00:00 3,2 2,2 - - 5 3 - - OZO 1032,1 10 0 0,0
14.02.2019 00:00:00 5,3 4,8 - - 4 2 - - O 1032,4 8 - 0,0
13.02.2019 23:00:00 5,2 4,5 - - 5 3 - - ZO 1032,0 6 0 0,0
13.02.2019 22:00:00 5,9 5,1 - - 5 3 - - O 1032,2 6 0 0,0
13.02.2019 21:00:00 6,5 5,4 - - 9 5 - - Z 1032,0 6 0 0,0
13.02.2019 20:00:00 6,6 5,4 - - 8 4 - - ZZO 1031,7 6 0 0,0
13.02.2019 19:00:00 6,3 5,0 - - 8 4 - - ZO 1031,8 10 0 0,0
13.02.2019 18:00:00 7,5 5,5 - - 21 11 - - Z 1031,3 10 0 0,0
13.02.2019 17:00:00 8,7 5,5 - - 21 11 - - Z 1031,1 10 54 0,0
13.02.2019 16:00:00 10,1 5,9 - - 22 12 - - Z 1031,6 10 30 0,0
13.02.2019 15:00:00 10,7 5,7 - - 21 11 - - ZZW 1032,0 20 54 0,0
13.02.2019 14:00:00 10,9 5,7 - - 28 15 - - Z 1031,9 10 54 0,0
13.02.2019 13:00:00 10,8 6,0 - - 28 15 - - ZZW 1032,3 10 36 0,0
13.02.2019 12:00:00 10,5 6,5 - - 24 13 - - Z 1032,7 10 18 0,0
13.02.2019 11:00:00 10,2 6,7 - - 22 12 - - ZZW 1032,4 10 24 0,0
13.02.2019 10:00:00 8,9 6,3 - - 16 9 - - ZZW 1032,1 10 0 0,0
13.02.2019 09:00:00 8,5 6,9 7,2 7,0 18 10 - - Z 1032,3 15 0 0,0
13.02.2019 08:00:00 6,4 5,9 - - 9 5 - - ZZO 1032,5 8 0 0,0
13.02.2019 07:00:00 5,3 4,3 - - 11 6 - - ZZO 1032,2 10 0 0,0
13.02.2019 06:00:00 6,1 5,2 - - 11 6 - - ZO 1032,4 15 0 0,0
13.02.2019 05:00:00 8,1 6,5 - - 9 5 - - Z 1032,6 10 0 0,0
13.02.2019 04:00:00 8,6 6,6 - - 11 6 - - Z 1032,8 10 0 0,0
13.02.2019 03:00:00 8,7 6,9 - - 8 4 - - Z 1033,2 10 0 0,0
13.02.2019 02:00:00 8,6 7,1 - - 9 5 - - ZZO 1033,4 10 0 0,0
13.02.2019 01:00:00 9,3 7,7 - - 13 7 - - Z 1033,5 10 0 0,0
13.02.2019 00:00:00 9,0 7,6 - - 11 6 - - Z 1033,3 10 - 0,0
12.02.2019 23:00:00 9,1 7,4 - - 13 7 - - ZZW 1033,5 8 0 0,0
12.02.2019 22:00:00 9,4 7,8 - - 9 5 - - ZW 1033,6 8 0 0,0
12.02.2019 21:00:00 9,4 7,9 - - 13 7 - - ZZW 1033,5 10 0 0,0
12.02.2019 20:00:00 9,4 7,7 - - 15 8 - - ZZW 1033,6 10 0 0,0
12.02.2019 19:00:00 9,3 7,7 - - 13 7 - - ZZW 1033,6 10 0 0,0
12.02.2019 18:00:00 9,5 7,7 - - 16 9 - - Z 1033,4 10 0 0,0
12.02.2019 17:00:00 9,7 7,5 - - 13 7 - - ZZW 1033,2 10 0 0,0
12.02.2019 16:00:00 9,6 7,8 - - 9 5 - - ZZW 1033,1 10 0 0,0
12.02.2019 15:00:00 9,8 7,8 - - 13 7 - - ZZW 1033,2 18 0 0,0
12.02.2019 14:00:00 9,4 7,4 - - 11 6 - - Z 1033,4 10 0 0,0
12.02.2019 13:00:00 8,9 7,2 - - 11 6 - - ZZW 1033,6 10 0 0,0
12.02.2019 12:00:00 8,9 6,9 - - 13 7 - - ZZW 1034,0 10 0 0,0
12.02.2019 11:00:00 8,7 6,9 - - 11 6 - - Z 1033,7 10 0 0,0
12.02.2019 10:00:00 6,4 6,2 - - 8 4 - - ZZO - 10 6 0,0
12.02.2019 09:00:00 0,9 0,6 6,7 7,0 9 5 - - OZO 1033,5 10 6 0,0
12.02.2019 08:00:00 -2,0 -2,5 - - 4 2 - - NO 1033,7 10 0 0,0
12.02.2019 07:00:00 -2,1 -2,7 - - 0 0 - - N 1033,0 10 0 0,0
12.02.2019 06:00:00 -1,6 -2,1 - - 4 2 - - NO 1033,0 10 0 0,0
12.02.2019 05:00:00 -1,8 -2,4 - - 5 3 - - OZO 1032,7 10 0 0,0
12.02.2019 04:00:00 -1,8 -2,4 - - 4 2 - - OZO 1033,0 10 0 0,0
12.02.2019 03:00:00 -1,1 -1,5 - - 0 0 - - N 1033,2 10 0 0,0
12.02.2019 02:00:00 -0,6 -1,1 - - 4 2 - - ZO 1033,2 15 0 0,0
12.02.2019 01:00:00 -0,6 -1,4 - - 5 3 - - OZO 1033,2 10 0 0,0

tt = temperatuur
td = dauwpunt
tt -20cm = temperatuur -20cm
tt -100cm = temperatuur -100cm
ff = windsnelheid
fx = windstoten
dd = windrichting
ppp = luchtdruk
vv = zicht
sd = Zonneschijnduur
rr = neerslag

Weerstations in de omgeving